Regional Weather Roundup
Issued by NWS

Home | Current Version | Previous Version | Graphics & Text | Print | Product List | Glossary On
Versions: 1 2 3 4 5 6 7 8 9 10 11 12 13 14 15 16 17 18 19 20 21 22 23 24 25 26 27 28 29 30 31 32 33 34 35 36 37 38 39 40 41 42 43 44 45 46 47 48 49 50
000
ASUS43 KMKX 011711
RWRWI

WISCONSIN REGIONAL WEATHER ROUNDUP
NATIONAL WEATHER SERVICE MILWAUKEE/SULLIVAN WI
1200 PM CDT WED OCT 01 2014

NOTE: "FAIR" INDICATES FEW OR NO CLOUDS BELOW 12,000 FEET WITH NO
SIGNIFICANT WEATHER AND/OR OBSTRUCTIONS TO VISIBILITY.

WIZ001-002-006>008-014>016-023>028-011800-
NORTHWEST WISCONSIN

CITY           SKY/WX    TMP DP  RH WIND       PRES   REMARKS
SUPERIOR ARPT  HVY RAIN  49  48  99 E5        29.85F
ASHLAND        LGT RAIN  51  47  86 CALM      29.88F FOG
HAYWARD        RAIN      49  47  93 SE8       29.87F FOG
SIREN          LGT RAIN  49  48  95 SE6       29.83F
CUMBERLAND     RAIN      46  45  93 SE8       29.85F
RICE LAKE      RAIN      49  47  93 SE13      29.87F
CHETEK         LGT RAIN  48  48  97 E9        29.87F
LADYSMITH      DRIZZLE   49  48  95 SE7       29.90F
EAU CLAIRE     LGT RAIN  50  48  93 SE8       29.85F FOG
MENOMONIE      LGT RAIN  50  49  98 E7        29.85F
NEW RICHMOND   HVY RAIN  49  48  98 S7        29.84S
OSCEOLA        RAIN      50  50 100 SE7       29.86S
$$

WIZ003>005-009-010-017-018-011800-
NORTH CENTRAL WISCONSIN

CITY           SKY/WX    TMP DP  RH WIND       PRES   REMARKS
MANITOWISH WTR CLOUDY    51  46  80 SE12      29.92F
ARBOR VITAE    CLOUDY    52  46  78 SE12G20   29.93F
WOODRUFF       CLOUDY    52  46  78 SE12G20   29.93F
RHINELANDER    CLOUDY    51  45  79 SE13      29.95F
EAGLE RIVER    CLOUDY    50  43  76 S10G18    29.95F
LAND O LAKES   CLOUDY    52  45  75 S14       29.95F
PHILLIPS       CLOUDY    50  46  86 SE8       29.90F
TOMAHAWK       PTSUNNY   56  47  73 S7        29.94F
MEDFORD        CLOUDY    51  47  86 SE10      29.91F
MERRILL        CLOUDY    55  47  76 SE8G17    29.94F
$$

WIZ029-030-035-036-043>047-011800-
CENTRAL WISCONSIN

CITY           SKY/WX    TMP DP  RH WIND       PRES   REMARKS
WAUSAU         PTSUNNY   56  47  71 SE15      29.94F
MOSINEE        CLOUDY    55  50  82 SE12      29.98R
MARSHFIELD     CLOUDY    56  48  74 SE16      29.91F
STEVENS POINT  CLOUDY    56  47  71 SE12      29.96S
WAUPACA        MOSUNNY   63  50  63 SE10G17   29.96F
WAUTOMA        NOT AVBL
WISC RAPIDS    PTSUNNY   58  48  69 SE12G20   29.94F
CAMP DOUGLAS   CLOUDY    59  54  82 E15       29.89F
$$

WIZ011>013-019>022-031-037>040-048>050-011800-
NORTHEAST WISCONSIN

CITY           SKY/WX    TMP DP  RH WIND       PRES   REMARKS
ANTIGO         CLOUDY    52  48  85 S13       29.97S
SHAWANO        CLOUDY    59  51  74 SE13      29.98F
OCONTO         CLOUDY    54  54 100 SE9       30.01S
STURGEON BAY   NOT AVBL
GREEN BAY      CLOUDY    59  53  80 E13       29.99F
MANITOWOC      NOT AVBL
APPLETON       PTSUNNY   57  52  82 SE10      29.99F
CLINTONVILLE   CLOUDY    59  50  72 SE8       29.97F
OSHKOSH        MOSUNNY   63  51  65 SE10      29.96F
$$

WIZ032>034-041-042-053>061-011800-
SOUTHWEST WISCONSIN

CITY           SKY/WX    TMP DP  RH WIND       PRES   REMARKS
LA CROSSE      LGT RAIN  57  51  80 SE7       29.86F
SPARTA         CLOUDY    58  49  72 SE5       29.88F
VIROQUA        CLOUDY    58  49  74 SE14      29.87S
BOSCOBEL       CLOUDY    61  50  67 E6        29.87F
PRAIRIE DU CHI CLOUDY    59  49  68 SE6       29.86S
PLATTEVILLE    CLOUDY    62  53  71 SE16G23   29.87F
$$

WIZ056-057-062-063-064-067-068-011800-
SOUTH CENTRAL WISCONSIN

CITY           SKY/WX    TMP DP  RH WIND       PRES   REMARKS
REEDSBURG      MOSUNNY   61  51  70 SE8       29.90F
BARABOO/DELLS  MOSUNNY   62  48  61 SE10      29.92F
LONE ROCK      PTSUNNY   66  49  54 SE15      29.89F
MINERAL POINT  CLOUDY    63  50  63 SE17G23   29.88F
MADISON        PTSUNNY   64  49  57 SE14      29.94F
MIDDLETON      MOSUNNY   64  48  55 SE9       29.94F
WATERTOWN      SUNNY     64  49  58 SE13      29.96F
MONROE         PTSUNNY   63  52  67 SE12      29.93F
JANESVILLE     SUNNY     66  48  52 S10       29.95F
$$

WIZ051-052-058>065-066-070>072-011800-
SOUTHEAST WISCONSIN

CITY           SKY/WX    TMP DP  RH WIND       PRES   REMARKS
MILWAUKEE      MOSUNNY   61  49  64 SE16      30.00F
WAUKESHA       SUNNY     61  48  63 SE7       30.00F
MILWAUKEE/TIMM SUNNY     63  48  59 S9        30.01F
RACINE         PTSUNNY   60  49  66 S13       30.02F
BURLINGTON     SUNNY     63  48  58 SE9       29.98F
KENOSHA        MOSUNNY   62  51  67 SE14      30.00F
FOND DU LAC    SUNNY     63  50  62 S13       29.97F
SHEBOYGAN      NOT AVBL
WEST BEND      MOSUNNY   63  46  55 SE10G16   29.99F
JUNEAU         SUNNY     61  49  64 SE15      29.97F
$$

LSZ147-162-011800-
LAKE SUPERIOR

STATION/POSITION TIME  TEMP    WIND        PRES    WAVE
                       AIR SEA DIR/SP/G            HT/PER
                 (UTC) (F)     (DEG/KT/KT) (MB)    (FT/S)
W MID LAKE BUOY  1650   50 50  120/  8/ 10 1012.7F   2/ 4
DEVILS ISLAND    1700   49     130/  3/  4 1012.3F
SAXON HARBOR     1600   55     160/  2/  9 1012.2F
$$

LMZ867-665-643>646-011800-
LAKE MICHIGAN

STATION/POSITION TIME  TEMP    WIND        PRES    WAVE
                       AIR SEA DIR/SP/G            HT/PER
                 (UTC) (F)     (DEG/KT/KT) (MB)    (FT/S)
CHAMBERS ISLAND  1600   56     160/  8/ 14 1017.3F
N MID LAKE BUOY  1650   55 58  170/ 12/ 12 1018.0S   1
NORTHPORT PIER   1600   56     140/  9/ 14 1017.6R
SISTER BAY       1642          180/ 17/ 21   N/A
KEWAUNEE LAKESHO 1600   53     140/  9/ 12 1016.3F
SHEBOYGAN LAKESH 1700   56 54  130/ 17/ 18 1016.3F
PORT WASHINGTON  1640   59     150/ 10/ 13 1016.6F
ATWATER BUOY     1700   58     160/ 14/ 16 1017.1F
MILWAUKEE LAKESH 1600   58     150/ 13/ 14   N/A
S MID LAKE BUOY  1650   57 61  130/ 10/ 12 1017.1F   1/ 3
KENOSHA   LAKESH 1700   58     150/ 16/ 18 1015.9F
$$

TC  - TEMPERATURE IN CELSIUS
VSB - VISIBILITY IN STATUTE MILES
WCI - WIND CHILL INDEX
HX  - HEAT INDEX



USA.gov is the U.S. government's official web portal to all federal, state and local government web resources and services.